Terminal Aerodrome Forecast
Issued by NWS Tallahassee, FL

Home | Current Version | Previous Version | Text Only | Print | Product List | Glossary On
Versions: 1 2 3 4 5 6 7 8 9 10 11 12 13 14 15 16 17 18
000
FTUS42 KTAE 170500
TAFTLH
TAF
KTLH 170526Z 1706/1806 00000KT P6SM SCT150 OVC250
     FM171400 01005KT P6SM SCT250
     FM172000 29008KT P6SM SCT050 SCT250
     FM180300 00000KT P6SM SKC=

USA.gov is the U.S. government's official web portal to all federal, state and local government web resources and services.